Metropolis, IL

12:39 AM CDT on April 24, 2018 (GMT -0500)
Metropolis

Weather History for KM30 - May, 2013

Change the Weather History Date:

Thursday, May 9, 2013

  Actual Average (KPAH) Record (KPAH)
Temperature  
Mean Temperature 69 °F -  
Max Temperature 80 °F 74 °F 88 °F (1986)
Min Temperature 58 °F 51 °F 36 °F (1960)
Cooling Degree Days 4    
Growing Degree Days 19 (Base 50)    
Moisture  
Dew Point 59 °F    
Average Humidity 62    
Maximum Humidity 100    
Minimum Humidity 43    
Precipitation  
Precipitation 0.00 in - - ()
Sea Level Pressure  
Sea Level Pressure 29.97 in    
Wind  
Wind Speed 6 mph (SSW)    
Max Wind Speed 18 mph    
Max Gust Speed 25 mph    
Visibility 10 miles    
Events Rain    
Averages and records for this station are not official NWS values.
T = Trace of Precipitation, MM = Missing Value Source: NWS Daily Summary

Daily Weather History Graph

Daily Weather History Graph

Search for Another Location

Airport or City:

Astronomy

May. 09, 2013 Rise Set
Actual Time 5:51 AM CDT 7:51 PM CDT
Civil Twilight 5:23 AM CDT 8:20 PM CDT
Nautical Twilight 4:48 AM CDT 8:55 PM CDT
Astronomical Twilight 4:10 AM CDT 9:33 PM CDT
Moon 5:35 AM CDT (5/9) 7:46 PM CDT (5/9)
Length of Visible Light 14h 57m
Length of Day
14h 00m
Waning Crescent, 0% of the Moon is Illuminated
May 9
Waning Crescent
May 9
New
May 17
First Quarter
May 24
Full
May 31
Last Quarter

Hourly Weather History & Observations

Time (CDT) Temp. Heat Index Dew Point Humidity Pressure Visibility Wind Dir Wind Speed Gust Speed Precip Events Conditions
12:55 AM 63.9 °F - 60.3 °F 88% 30.01 in 10.0 mi Calm Calm - N/A   Mostly Cloudy
1:35 AM 63.5 °F - 61.9 °F 94% 30.01 in 10.0 mi Calm Calm - N/A   Overcast
1:55 AM 63.7 °F - 62.4 °F 96% 30.00 in 10.0 mi Calm Calm - N/A Rain Light Rain
2:55 AM 63.0 °F - 62.1 °F 97% 30.01 in 10.0 mi Calm Calm - N/A   Scattered Clouds
4:35 AM 61.0 °F - 60.8 °F 99% 30.00 in 10.0 mi Calm Calm - N/A   Clear
5:15 AM 59.9 °F - 59.9 °F 100% 30.00 in 7.0 mi Calm Calm - N/A   Scattered Clouds
5:35 AM 58.8 °F - 58.8 °F 100% 30.00 in 5.0 mi Calm Calm - N/A   Scattered Clouds
7:15 AM 64.2 °F - 61.5 °F 91% 30.01 in 10.0 mi SSE 3.5 mph - N/A   Scattered Clouds
7:55 AM 68.9 °F - 59.4 °F 72% 30.03 in 10.0 mi South 3.5 mph - N/A   Clear
9:15 AM 75.2 °F - 59.0 °F 57% 30.03 in 10.0 mi SSW 10.4 mph - N/A   Clear
9:55 AM 76.3 °F - 58.8 °F 55% 30.02 in 10.0 mi South 8.1 mph - N/A   Scattered Clouds
10:15 AM 78.3 °F - 59.4 °F 52% 30.02 in 10.0 mi South 11.5 mph 16.1 mph N/A   Clear
10:35 AM 78.8 °F - 59.5 °F 52% 30.03 in 10.0 mi SSW 11.5 mph 16.1 mph N/A   Clear
10:55 AM 75.6 °F - 59.4 °F 57% 30.04 in 10.0 mi SSW 9.2 mph - N/A   Scattered Clouds
11:15 AM 77.7 °F - 59.5 °F 53% 30.04 in 10.0 mi South 9.2 mph 17.3 mph N/A   Scattered Clouds
11:35 AM 77.0 °F - 59.7 °F 55% 30.04 in 10.0 mi SSW 9.2 mph - N/A   Scattered Clouds
11:55 AM 75.6 °F - 60.8 °F 60% 30.03 in 10.0 mi SSW 8.1 mph 18.4 mph N/A Rain Light Rain
12:15 PM 78.8 °F - 61.0 °F 54% 30.02 in 10.0 mi SSW 15.0 mph - N/A   Scattered Clouds
12:35 PM 78.3 °F - 62.1 °F 57% 30.01 in 10.0 mi South 11.5 mph 17.3 mph N/A   Scattered Clouds
12:55 PM 79.7 °F - 61.9 °F 54% 30.00 in 10.0 mi SSW 12.7 mph 18.4 mph N/A   Scattered Clouds
1:15 PM 79.7 °F - 61.7 °F 54% 29.99 in 10.0 mi SW 15.0 mph 24.2 mph N/A   Scattered Clouds
1:35 PM 79.3 °F - 61.0 °F 53% 29.97 in 10.0 mi South 15.0 mph 20.7 mph N/A   Scattered Clouds
1:55 PM 80.6 °F 81.2 °F 60.1 °F 49% 29.96 in 10.0 mi SSW 17.3 mph 23.0 mph N/A   Scattered Clouds
3:15 PM 78.6 °F - 61.2 °F 55% 29.95 in 10.0 mi SW 15.0 mph 23.0 mph N/A   Mostly Cloudy
3:35 PM 79.5 °F - 60.3 °F 52% 29.95 in 10.0 mi SW 13.8 mph 19.6 mph N/A   Scattered Clouds
3:55 PM 80.8 °F 81.3 °F 59.5 °F 48% 29.94 in 10.0 mi SSW 18.4 mph 25.3 mph N/A   Clear
4:15 PM 80.6 °F 80.9 °F 58.3 °F 46% 29.93 in 10.0 mi SSW 17.3 mph 23.0 mph N/A   Clear
4:35 PM 80.6 °F 80.8 °F 57.2 °F 45% 29.92 in 10.0 mi SSW 18.4 mph 24.2 mph N/A   Scattered Clouds
4:55 PM 79.9 °F - 55.8 °F 43% 29.92 in 10.0 mi SSW 13.8 mph 23.0 mph N/A   Clear
5:15 PM 79.7 °F - 57.0 °F 46% 29.92 in 10.0 mi South 13.8 mph 23.0 mph N/A   Clear
5:35 PM 79.5 °F - 57.0 °F 46% 29.93 in 10.0 mi SSW 16.1 mph 21.9 mph N/A   Clear
5:55 PM 78.4 °F - 56.1 °F 46% 29.93 in 10.0 mi SW 16.1 mph 21.9 mph N/A   Scattered Clouds
6:15 PM 78.8 °F - 57.7 °F 48% 29.93 in 10.0 mi SW 9.2 mph 16.1 mph N/A   Scattered Clouds
6:35 PM 77.5 °F - 57.4 °F 50% 29.92 in 10.0 mi SSW 10.4 mph 17.3 mph N/A   Scattered Clouds
6:55 PM 77.4 °F - 57.4 °F 50% 29.91 in 10.0 mi SSW 9.2 mph 16.1 mph N/A   Scattered Clouds
7:15 PM 75.9 °F - 58.1 °F 54% 29.91 in 10.0 mi SSW 8.1 mph - N/A   Scattered Clouds
7:35 PM 74.8 °F - 58.1 °F 56% 29.92 in 10.0 mi SSW 8.1 mph - N/A   Clear
7:55 PM 74.7 °F - 57.4 °F 55% 29.93 in 10.0 mi SSW 9.2 mph - N/A   Clear
8:15 PM 74.3 °F - 57.2 °F 55% 29.93 in 10.0 mi SSW 8.1 mph - N/A   Clear
8:35 PM 73.8 °F - 57.2 °F 56% 29.94 in 10.0 mi SSW 8.1 mph - N/A   Clear
8:55 PM 73.6 °F - 57.6 °F 57% 29.95 in 10.0 mi SSW 8.1 mph - N/A   Clear
9:15 PM 73.4 °F - 58.3 °F 59% 29.94 in 10.0 mi SSW 6.9 mph - N/A   Clear
9:35 PM 72.7 °F - 59.0 °F 62% 29.94 in 10.0 mi South 6.9 mph - N/A   Clear
9:55 PM 71.6 °F - 59.0 °F 64% 29.95 in 10.0 mi South 5.8 mph - N/A   Clear
10:15 PM 71.1 °F - 59.2 °F 66% 29.95 in 10.0 mi South 4.6 mph - N/A   Clear
10:55 PM 69.8 °F - 59.2 °F 69% 29.95 in 10.0 mi South 3.5 mph - N/A   Clear
11:15 PM 69.8 °F - 59.5 °F 70% 29.96 in 10.0 mi SSW 3.5 mph - N/A   Scattered Clouds
11:35 PM 70.0 °F - 59.9 °F 70% 29.95 in 10.0 mi SSW 4.6 mph - N/A   Mostly Cloudy
11:55 PM 70.2 °F - 59.4 °F 69% 29.95 in 10.0 mi SSW 4.6 mph - N/A   Scattered Clouds